Skip Page Navigation
NASA JPL Caltech
NASA Logo - Jet Propulsion Laboratory + View the NASA Portal
+ Center for Near-Earth Object Studies
JPL Home Earth Solar System Stars & Galaxies Technology
JPL Solar System Dynamics
BODIES ORBITS EPHEMERIDES TOOLS PHYSICAL DATA DISCOVERY FAQ SITE MAP
JPL Small-Body Database Browser
Search: [ help ]  
379597 (2011 CS33)
Classification: Main-belt Asteroid          SPK-ID: 2379597
Ephemeris | Orbit Diagram | Orbital Elements | Mission Design | Physical Parameters | Discovery Circumstances | Close-Approach Data ]

[ show orbit diagram ]
Orbital Elements at Epoch 2459000.5 (2020-May-31.0) TDB
Reference: JPL 10 (heliocentric ecliptic J2000)
 Element Value Uncertainty (1-sigma)   Units 
e .1127562366414822 5.8853e-08  
a 2.32340385548608 2.7799e-08 au
q 2.06142558054316 1.3811e-07 au
i 1.648678094807434 7.0077e-06 deg
node 279.8544383212409 0.00024329 deg
peri 263.1620549816353 0.00024733 deg
M 183.0705739038891 4.1187e-05 deg
tp 2459636.245146701333
(2022-Feb-25.74514670)
0.00015213 TDB
period 1293.556746677939
3.54
2.3216e-05
6.356e-08
d
yr
n .2783024408666552 4.9948e-09 deg/d
Q 2.585382130429001 3.0934e-08 au
  Orbit Determination Parameters
   # obs. used (total)      111  
   data-arc span      4612 days (12.63 yr)  
   first obs. used      2006-11-18  
   last obs. used      2019-07-05  
   planetary ephem.      DE431  
   SB-pert. ephem.      SB431-N16  
   condition code      0  
   norm. resid. RMS      .57631  
   source      ORB  
   producer      Otto Matic  
   solution date      2020-Feb-26 03:12:17  

Additional Information
 Earth MOID = 1.06443 au 
 Jupiter MOID = 2.3784 au 
 T_jup = 3.567 
[ show covariance matrix ]

Ephemeris | Orbit Diagram | Orbital Elements | Mission Design | Physical Parameters | Discovery Circumstances | Close-Approach Data ]

Physical Parameter Table
Parameter Symbol Value Units Sigma Reference Notes
absolute magnitude H 17.9   n/a MPO434348  

379597 (2011 CS33)          Discovered 2010-Dec-08 by Mt. Lemmon Survey at Mount Lemmon
Reference: Last Updated: 2013-11-20

[ show close-approach data ]
Ephemeris | Orbit Diagram | Orbital Elements | Mission Design | Physical Parameters | Discovery Circumstances | Close-Approach Data ]
ABOUT SSD CREDITS/AWARDS PRIVACY/COPYRIGHT GLOSSARY LINKS
FirstGov 2020-Aug-10 07:06 UT
(server date/time)  
NASA Home Page
Site Manager:   Ryan S. Park
Webmaster  Alan B. Chamberlin